Simultaneous Nadir Overpasses (SNOs) Predictions

Prediction of SNOs between METOP-B and NOAA-19 Satellite Orbit:

Table of predicted SNOs for the next 14.0 days since TLE Epoch: 4/30/2022
Index Date (METOP-B) Time (METOP-B) Lat,Lon (METOP-B) SZA (METOP-B ) Date (NOAA-19) Time (NOAA-19) Lat,Lon (NOAA-19) SZA (NOAA-19 ) Distance(km) Time Diff (sec)
1 04/30/2022 20:58:58 -80.83, 78.36 112.56 04/30/2022 20:57:58 -80.82, 78.20 112.61 3.18 60
2 04/30/2022 21:49:40 80.81,-114.69 67.38 04/30/2022 21:48:54 80.82,-114.61 67.38 1.75 46
3 04/30/2022 22:40:20 -80.82, 52.86 112.60 04/30/2022 22:39:58 -80.82, 52.70 112.63 3.04 22
4 04/30/2022 23:31:01 80.82,-139.83 67.39 04/30/2022 23:30:53 80.81,-139.74 67.38 1.91 8
5 05/01/2022 00:21:42 -80.81, 27.37 112.65 05/01/2022 00:21:58 -80.82, 27.19 112.65 3.22 16
6 05/01/2022 01:12:23 80.81,-165.33 67.34 05/01/2022 01:12:53 80.81,-165.25 67.36 1.48 30
7 05/01/2022 02:03:04 -80.81, 1.88 112.69 05/01/2022 02:03:57 -80.81, 2.05 112.65 3.17 53
8 05/01/2022 02:53:45 80.80, 169.18 67.30 05/01/2022 02:54:53 80.81, 169.25 67.34 1.62 68
9 05/12/2022 01:35:00 -80.82, 9.22 115.67 05/12/2022 01:33:49 -80.83, 9.08 115.71 2.46 71
10 05/12/2022 02:25:40 80.84, 176.78 64.36 05/12/2022 02:24:46 80.82, 176.67 64.32 2.48 54
11 05/12/2022 03:16:21 -80.83, -15.93 115.66 05/12/2022 03:15:48 -80.82, -16.06 115.70 2.75 33
12 05/12/2022 04:07:02 80.83, 151.28 64.32 05/12/2022 04:06:46 80.82, 151.16 64.30 2.09 16
13 05/12/2022 04:57:43 -80.83, -41.43 115.70 05/12/2022 04:57:48 -80.82, -41.58 115.72 2.64 5
14 05/12/2022 05:48:24 80.82, 125.77 64.28 05/12/2022 05:48:46 80.82, 125.65 64.28 2.18 22
15 05/12/2022 06:39:05 -80.82, -66.93 115.74 05/12/2022 06:39:48 -80.82, -67.09 115.73 2.93 43



Historial Predications of SNOs between METOP-B and NOAA-19
